Location: Stoke Bliss
(52.2667°N, 2.5167°W)
Time: 13:06:26
(UTC+00:00)

Ariane Rocket - Pass Details

Date: 03 March 2021
Orbit: 759 x 771 km, 98.7° (Epoch: 13 April)

Event Time Altitude Azimuth Distance (km) Brightness Sun altitude
Exits shadow 18:42:04 - 117° (ESE) 2,593 5.2 -8.2°
Reaches altitude 10° 18:42:53 10° 112° (ESE) 2,316 4.9 -8.4°
Maximum altitude 18:47:01 26° 58° (ENE) 1,500 4.1 -9.0°
Drops below altitude 10° 18:51:11 10° 4° (N) 2,325 5.5 -9.6°
Sets 18:53:49 0° 352° (N) 3,254 6.4 -10.0°
